Location: Chassagnes
(44.4047°N, 4.1657°E)
Time: 12:06:23
(UTC+00:00)

SKYMED 2 - Pass Details

Date: 27 October 2020
Orbit: 621 x 623 km, 97.9° (Epoch: 24 November)

Event Time Altitude Azimuth Distance (km) Brightness Sun altitude
Rises 17:14:19 0° 21° (NNE) 2,913 6.7 -6.9°
Reaches altitude 10° 17:16:42 10° 31° (NNE) 2,001 5.8 -7.3°
Maximum altitude 17:20:40 34° 97° (E) 1,031 4.2 -8.0°
Drops below altitude 10° 17:24:36 10° 163° (SSE) 1,985 6.1 -8.7°
Sets 17:26:56 0° 172° (S) 2,886 7.0 -9.1°
